Current weather by "City, St" or "zip code"  
 
Advertise Here

Current Conditions: Burlington - Carson County Airport, CO

Fair


65.0 F

Last Updated on May 30 2020, 12:53 am MDT
Humidity: 61%
Wind Speed: S 18.4 mph
Barometer 30.11 in
Dewpoint: 51.1 F
Visibility: 10.00 mi
Precip: --
Heat Index: NA
Wind Chill: NA
Current conditions at:

Burlington - Carson County Airport, CO (KITR)

Lat: 39.24149 Lon: 102.2819

Local Radar Image active severe weather and emergency alerts image image weather storm and storm spotter reports image weather observation monitoring service image
Local
Radar
Active
Alerts
Storm Reports Obs
Monitoring

Sign-up For Email & Text Message Weather Alert Notification Services


Advertise Here

Observation History for Burlington - Carson County Airport, CO


Time Wind
(mph)
Vis
(mi)
Weather Precip (in) Temperature (F) Relative
Humidity
Wind
Chill
(F)
Heat
Index
(F)
Pressure
Air Dwpt altimeter
(in)
sea level
(mb)
Rmks
12:53 am MDT S 18.4 10.00 Fair -- 65.0 51.1 61% NA NA 30.11 1013.8
11:53 pm MDT SE 19.6 G 28.8 10.00 Fair -- 66.0 51.1 59% NA NA 30.13 1014.8
10:53 pm MDT SE 21.9 G 32.2 10.00 Fair and Breezy -- 69.0 50.0 51% NA NA 30.15 1015.3
9:53 pm MDT SE 23.0 G 34.5 10.00 A Few Clouds and Breezy -- 71.0 50.0 47% NA NA 30.16 1015.6
8:53 pm MDT SE 20.7 G 28.8 10.00 Fair and Breezy -- 74.0 51.1 45% NA NA 30.14 1015.3
7:53 pm MDT SE 17.3 10.00 Fair -- 78.0 48.9 36% NA NA 30.13 1015.0
6:53 pm MDT SE 23.0 G 31.1 10.00 Fair and Breezy -- 84.0 48.0 29% NA 82 30.11 1014.3
5:53 pm MDT SE 25.3 G 33.4 10.00 Fair and Breezy -- 87.0 48.0 26% NA 84 30.10 1014.0
4:53 pm MDT SE 18.4 G 29.9 10.00 Fair -- 89.0 46.0 23% NA 86 30.10 1014.0
3:53 pm MDT SE 17.3 G 28.8 10.00 Fair -- 90.0 45.0 21% NA 86 30.12 1014.3
2:53 pm MDT SE 15.0 G 28.8 10.00 Fair -- 89.0 46.0 23% NA 86 30.13 1014.8
1:53 pm MDT S 20.7 G 34.5 10.00 Fair and Breezy -- 88.0 46.9 24% NA 85 30.15 1015.3
12:53 pm MDT S 18.4 G 33.4 10.00 Fair -- 85.0 48.0 28% NA 83 30.17 1016.2
11:53 am MDT S 23.0 G 31.1 10.00 Fair and Breezy -- 83.0 48.0 30% NA 81 30.19 1017.0
10:53 am MDT S 18.4 G 31.1 10.00 Fair -- 80.0 48.9 34% NA 79 30.22 1018.2
9:53 am MDT S 20.7 G 29.9 10.00 Fair and Breezy -- 77.0 50.0 39% NA NA 30.23 1018.8
8:53 am MDT S 23.0 G 32.2 10.00 Fair and Breezy -- 72.0 51.1 48% NA NA 30.25 1019.6
7:53 am MDT S 16.1 10.00 Fair -- 64.0 53.1 68% NA NA 30.26 1020.4
6:53 am MDT SE 12.7 10.00 Fair -- 59.0 53.1 81% 57 NA 30.27 1020.6
5:53 am MDT S 10.4 10.00 Fair -- 56.0 51.1 84% 53 NA 30.27 1020.6
4:53 am MDT S 8.1 10.00 Overcast -- 57.0 52.0 83% 55 NA 30.27 1020.6
3:53 am MDT SE 8.1 10.00 Overcast -- 58.0 53.1 84% 56 NA 30.27 1020.4
2:53 am MDT SE 11.5 10.00 Partly Cloudy Trace 59.0 53.1 81% 57 NA 30.27 1020.4
1:53 am MDT S 9.2 10.00 Mostly Cloudy Trace 60.0 53.1 78% 59 NA 30.29 1021.2

Regional Weather Observation


ST FRANCIS, KS (KSYF)

Partly Cloudy and Breezy
65.0 F

Goodland, Renner Field, KS (KGLD)

Fair
63.0 F

Wray Municipal Airport, CO (K2V5)

Fair
66.0 F

Limon Municipal Airport, CO (KLIC)

Fair
59.0 F

Colby Shaltz Field Airport, KS (KCBK)

Fair
61.0 F

Colorado Plains Regional Airport, CO (KAKO)

A Few Clouds
67.0 F